GW2978 Weather Reports


time (UTC)temp
C
wind
direction
speed
KPH
gust
KPH
rain 1hr
cm
rain 24hr
cm
rain mn
cm
humidity
%
barometer
mb
20260510224823 28 194 0.0 4.8 0.00 0.00 0.00 33 1013.5
20260510224320 28 222 6.4 9.7 0.00 0.00 0.00 33 1013.8
20260510223817 28 200 1.6 3.2 0.00 0.00 0.00 33 1013.4
20260510223314 28 239 3.2 6.4 0.00 0.00 0.00 33 1013.7
20260510222812 27 202 0.0 4.8 0.00 0.00 0.00 33 1013.4
20260510222309 28 233 1.6 6.4 0.00 0.00 0.00 31 1013.5
20260510221804 28 319 1.6 6.4 0.00 0.00 0.00 32 1013.4
20260510221301 28 348 3.2 3.2 0.00 0.00 0.00 32 1013.4
20260510220757 27 325 3.2 4.8 0.00 0.00 0.00 32 1013.3
20260510220253 27 200 0.0 1.6 0.00 0.00 0.00 32 1013.4
20260510215750 28 341 6.4 6.4 0.00 0.00 0.00 31 1013.4
20260510215248 28 295 3.2 11.3 0.00 0.00 0.00 31 1013.4
20260510214744 27 315 3.2 9.7 0.00 0.00 0.00 30 1013.3
20260510214242 28 282 4.8 6.4 0.00 0.00 0.00 31 1013.6
20260510213738 28 225 1.6 6.4 0.00 0.00 0.00 31 1013.3
20260510213235 28 339 1.6 9.7 0.00 0.00 0.00 30 1013.2
20260510212731 28 222 3.2 6.4 0.00 0.00 0.00 31 1013.4
20260510212229 28 276 4.8 11.3 0.00 0.00 0.00 31 1013.3
20260510211725 28 199 4.8 9.7 0.00 0.00 0.00 31 1013.5
20260510211220 28 222 4.8 11.3 0.00 0.00 0.00 32 1013.4
20260510210716 27 196 3.2 12.9 0.00 0.00 0.00 32 1013.6
20260510210211 27 227 6.4 11.3 0.00 0.00 0.00 32 1013.6
20260510205706 28 262 9.7 12.9 0.00 0.00 0.00 32 1013.5
20260510205201 27 186 0.0 11.3 0.00 0.00 0.00 34 1013.6
20260510204657 27 181 1.6 9.7 0.00 0.00 0.00 32 1013.5
20260510204154 28 200 1.6 11.3 0.00 0.00 0.00 32 1013.5
20260510203651 28 241 6.4 17.7 0.00 0.00 0.00 32 1013.5
20260510203149 28 198 6.4 12.9 0.00 0.00 0.00 32 1013.5
20260510202643 27 4 6.4 11.3 0.00 0.00 0.00 33 1013.8
20260510202138 27 210 3.2 6.4 0.00 0.00 0.00 34 1013.4
20260510201635 27 198 4.8 6.4 0.00 0.00 0.00 32 1013.6
20260510201132 27 218 3.2 9.7 0.00 0.00 0.00 33 1013.5
20260510200623 27 227 4.8 11.3 0.00 0.00 0.00 33 1013.5
20260510200121 27 190 0.0 3.2 0.00 0.00 0.00 33 1013.6
20260510195618 27 194 0.0 9.7 0.00 0.00 0.00 34 1013.6
20260510195114 27 229 11.3 14.5 0.00 0.00 0.00 34 1013.9
20260510194613 28 249 9.7 12.9 0.00 0.00 0.00 33 1013.6
20260510194111 28 237 6.4 11.3 0.00 0.00 0.00 33 1013.7
20260510193611 27 88 3.2 6.4 0.00 0.00 0.00 33 1013.9
20260510193107 27 231 3.2 6.4 0.00 0.00 0.00 34 1013.6
20260510192601 27 37 4.8 11.3 0.00 0.00 0.00 33 1014.0
20260510192057 27 337 12.9 14.5 0.00 0.00 0.00 33 1013.9
20260510191554 26 229 1.6 4.8 0.00 0.00 0.00 34 1014.0
20260510191050 26 225 1.6 6.4 0.00 0.00 0.00 34 1014.0
20260510190542 27 228 9.7 16.1 0.00 0.00 0.00 34 1014.1
20260510190040 26 183 1.6 9.7 0.00 0.00 0.00 33 1014.0
20260510185536 27 173 9.7 12.9 0.00 0.00 0.00 34 1014.3
20260510185034 27 247 4.8 12.9 0.00 0.00 0.00 34 1014.3
20260510184531 26 192 6.4 9.7 0.00 0.00 0.00 34 1014.0
20260510184026 26 154 1.6 6.4 0.00 0.00 0.00 34 1014.0
20260510183522 27 220 14.5 17.7 0.00 0.00 0.00 34 1014.1
20260510183017 27 216 3.2 12.9 0.00 0.00 0.00 34 1014.1
20260510182514 26 294 6.4 17.7 0.00 0.00 0.00 34 1014.3
20260510182009 27 187 6.4 11.3 0.00 0.00 0.00 33 1014.0
20260510181508 27 164 4.8 6.4 0.00 0.00 0.00 34 1014.5
20260510181003 27 163 8.0 11.3 0.00 0.00 0.00 34 1014.7
20260510180501 26 186 3.2 4.8 0.00 0.00 0.00 33 1014.5
20260510175957 27 154 6.4 9.7 0.00 0.00 0.00 33 1014.3
20260510175453 26 172 1.6 9.7 0.00 0.00 0.00 33 1014.6
20260510174948 26 156 8.0 14.5 0.00 0.00 0.00 33 1014.5
20260510174447 26 218 4.8 9.7 0.00 0.00 0.00 33 1014.8
20260510173944 26 197 3.2 9.7 0.00 0.00 0.00 32 1014.7
20260510173439 26 170 8.0 11.3 0.00 0.00 0.00 32 1014.8
20260510172936 26 195 9.7 14.5 0.00 0.00 0.00 32 1014.6
20260510172432 26 186 3.2 6.4 0.00 0.00 0.00 32 1014.8
20260510171928 26 260 3.2 4.8 0.00 0.00 0.00 32 1014.9
20260510171425 26 203 6.4 11.3 0.00 0.00 0.00 33 1015.2
20260510170922 26 202 9.7 12.9 0.00 0.00 0.00 32 1015.1
20260510170419 26 195 9.7 12.9 0.00 0.00 0.00 31 1014.9
20260510165914 26 216 8.0 9.7 0.00 0.00 0.00 31 1015.2
20260510165410 26 236 3.2 6.4 0.00 0.00 0.00 31 1015.0
20260510164907 26 192 0.0 4.8 0.00 0.00 0.00 32 1014.9
20260510164404 26 207 6.4 11.3 0.00 0.00 0.00 32 1014.7
20260510163859 25 246 4.8 11.3 0.00 0.00 0.00 31 1015.1
20260510163355 25 218 4.8 11.3 0.00 0.00 0.00 34 1015.1
20260510162849 25 169 4.8 12.9 0.00 0.00 0.00 35 1015.0
20260510162347 25 192 3.2 11.3 0.00 0.00 0.00 35 1015.1
20260510161842 25 220 9.7 14.5 0.00 0.00 0.00 34 1015.4
20260510161339 26 271 3.2 11.3 0.00 0.00 0.00 36 1015.1
20260510160836 26 317 3.2 6.4 0.00 0.00 0.00 38 1015.3
20260510160332 25 192 0.0 6.4 0.00 0.00 0.00 37 1015.3
20260510155826 25 228 9.7 14.5 0.00 0.00 0.00 37 1015.5
20260510155324 25 225 6.4 12.9 0.00 0.00 0.00 38 1015.3
20260510154820 25 241 6.4 16.1 0.00 0.00 0.00 40 1015.4
20260510154315 25 112 3.2 6.4 0.00 0.00 0.00 42 1015.1
20260510153810 25 170 1.6 6.4 0.00 0.00 0.00 42 1015.6
20260510153306 26 27 4.8 6.4 0.00 0.00 0.00 42 1015.4
20260510152803 25 179 0.0 1.6 0.00 0.00 0.00 45 1015.4
20260510152300 25 196 0.0 4.8 0.00 0.00 0.00 46 1015.5
20260510151756 24 183 0.0 9.7 0.00 0.00 0.00 45 1015.6
20260510151255 24 219 6.4 6.4 0.00 0.00 0.00 48 1015.7
20260510150749 24 207 4.8 6.4 0.00 0.00 0.00 49 1015.5
20260510150246 23 211 1.6 9.7 0.00 0.00 0.00 50 1015.7
20260510145742 23 210 1.6 4.8 0.00 0.00 0.00 52 1015.8
20260510145239 25 202 6.4 9.7 0.00 0.00 0.00 53 1015.5
20260510144735 24 202 0.0 1.6 0.00 0.00 0.00 56 1015.8
20260510144232 23 164 0.0 1.6 0.00 0.00 0.00 57 1015.6
20260510143726 23 164 4.8 4.8 0.00 0.00 0.00 59 1015.5
20260510143223 22 201 1.6 6.4 0.00 0.00 0.00 60 1015.7
20260510142719 22 189 0.0 3.2 0.00 0.00 0.00 62 1015.5
20260510142216 22 205 3.2 6.4 0.00 0.00 0.00 62 1015.5
20260510141714 21 215 6.4 9.7 0.00 0.00 0.00 64 1015.6
20260510141212 21 193 3.2 6.4 0.00 0.00 0.00 67 1015.6
20260510140708 21 210 3.2 3.2 0.00 0.00 0.00 70 1015.5
20260510140207 21 196 0.0 4.8 0.00 0.00 0.00 72 1015.6
20260510135702 21 199 0.0 1.6 0.00 0.00 0.00 75 1015.5
20260510135158 20 201 3.2 3.2 0.00 0.00 0.00 76 1015.8
20260510134656 19 200 1.6 4.8 0.00 0.00 0.00 77 1015.9
20260510134153 20 226 4.8 4.8 0.00 0.00 0.00 79 1015.7
20260510133649 19 223 3.2 6.4 0.00 0.00 0.00 80 1015.6
20260510133144 19 183 3.2 4.8 0.00 0.00 0.00 82 1015.6
20260510132641 18 172 1.6 4.8 0.00 0.00 0.00 85 1015.7
20260510132138 18 196 3.2 4.8 0.00 0.00 0.00 86 1015.7
20260510131636 18 217 4.8 4.8 0.00 0.00 0.00 88 1015.7
20260510131133 18 194 0.0 1.6 0.00 0.00 0.00 90 1015.6
20260510130630 17 188 0.0 1.6 0.00 0.00 0.00 91 1015.6
20260510130127 17 187 3.2 3.2 0.00 0.00 0.00 92 1015.4
20260510125624 17 190 0.0 0.0 0.00 0.00 0.00 93 1015.4
20260510125120 16 189 0.0 0.0 0.00 0.00 0.00 94 1015.3
20260510124617 16 191 0.0 1.6 0.00 0.00 0.00 94 1015.1
20260510124114 15 200 1.6 1.6 0.00 0.00 0.00 94 1015.4
20260510123609 16 199 1.6 3.2 0.00 0.00 0.00 95 1015.4
20260510123105 15 184 0.0 0.0 0.00 0.00 0.00 96 1015.5
20260510122601 15 208 1.6 1.6 0.00 0.00 0.00 96 1015.3
20260510122057 15 191 1.6 1.6 0.00 0.00 0.00 96 1015.4
20260510121554 15 188 0.0 0.0 0.00 0.00 0.00 96 1015.3
20260510121052 14 184 0.0 1.6 0.00 0.00 0.00 97 1015.1
20260510120549 14 179 0.0 1.6 0.00 0.00 0.00 98 1015.1
20260510120044 13 189 0.0 0.0 0.00 0.00 0.00 97 1015.1
20260510115541 13 182 1.6 1.6 0.00 0.00 0.00 97 1015.0
20260510115038 13 191 0.0 0.0 0.00 0.00 0.00 97 1014.7
20260510114534 12 186 0.0 0.0 0.00 0.00 0.00 98 1014.8
20260510114030 12 190 0.0 0.0 0.00 0.00 0.00 98 1014.6
20260510113526 11 191 0.0 0.0 0.00 0.00 0.00 98 1014.5
20260510113024 11 176 0.0 1.6 0.00 0.00 0.00 98 1014.4
20260510112520 11 152 1.6 1.6 0.00 0.00 0.00 98 1014.1
20260510112016 10 172 0.0 0.0 0.00 0.00 0.00 98 1014.1
20260510111513 10 174 0.0 0.0 0.00 0.00 0.00 98 1013.9
20260510111009 8 147 1.6 3.2 0.00 0.00 0.00 98 1013.7
20260510110505 8 179 0.0 1.6 0.00 0.00 0.00 98 1013.7
20260510110002 8 200 0.0 0.0 0.00 0.00 0.00 98 1013.7
20260510105456 8 159 1.6 1.6 0.00 0.00 0.00 98 1013.7
20260510104952 8 184 0.0 0.0 0.00 0.00 0.00 98 1013.7
20260510104449 8 175 0.0 0.0 0.00 0.00 0.00 98 1013.9
20260510103945 8 169 0.0 1.6 0.00 0.00 0.00 97 1013.7
20260510103443 8 151 1.6 3.2 0.00 0.00 0.00 97 1013.5
20260510102938 8 182 0.0 0.0 0.00 0.00 0.00 97 1013.7
20260510102434 8 182 0.0 0.0 0.00 0.00 0.00 97 1013.3
20260510101931 8 181 0.0 3.2 0.00 0.00 0.00 97 1013.2
20260510101429 8 171 0.0 1.6 0.00 0.00 0.00 97 1013.3
20260510100927 8 185 0.0 0.0 0.00 0.00 0.00 97 1012.9
20260510100423 8 139 1.6 3.2 0.00 0.00 0.00 97 1012.9
20260510095919 9 80 3.2 4.8 0.00 0.00 0.00 97 1013.1
20260510095415 9 121 1.6 3.2 0.00 0.00 0.00 97 1012.7
20260510094914 9 76 4.8 4.8 0.00 0.00 0.00 97 1013.0
20260510094409 9 66 3.2 4.8 0.00 0.00 0.00 97 1012.8
20260510093905 9 74 3.2 4.8 0.00 0.00 0.00 97 1012.8
20260510093401 8 134 3.2 3.2 0.00 0.00 0.00 97 1012.9
20260510092858 8 150 3.2 3.2 0.00 0.00 0.00 97 1012.8
20260510092355 8 145 1.6 3.2 0.00 0.00 0.00 97 1012.6
20260510091849 9 154 1.6 1.6 0.00 0.00 0.00 97 1012.8
20260510091347 8 175 0.0 1.6 0.00 0.00 0.00 97 1012.5
20260510090843 9 192 0.0 0.0 0.00 0.00 0.00 97 1012.5
20260510090340 10 193 0.0 0.0 0.00 0.00 0.00 97 1012.5
20260510085835 9 155 3.2 3.2 0.00 0.00 0.00 97 1012.5
20260510085330 8 156 1.6 1.6 0.00 0.00 0.00 97 1012.6
20260510084826 8 187 0.0 0.0 0.00 0.00 0.00 97 1012.4
20260510084323 8 189 0.0 0.0 0.00 0.00 0.00 97 1012.3
20260510083820 8 195 0.0 0.0 0.00 0.00 0.00 96 1012.2
20260510083317 8 196 0.0 0.0 0.00 0.00 0.00 96 1012.2
20260510082812 9 199 0.0 0.0 0.00 0.00 0.00 96 1012.0
20260510082310 8 169 0.0 0.0 0.00 0.00 0.00 96 1012.2
20260510081809 8 192 0.0 0.0 0.00 0.00 0.00 96 1012.1
20260510081305 9 166 1.6 1.6 0.00 0.00 0.00 96 1012.2
20260510080801 9 187 0.0 0.0 0.00 0.00 0.00 96 1012.1
20260510080255 9 196 0.0 0.0 0.00 0.00 0.00 96 1011.9
20260510075753 9 190 0.0 0.0 0.00 0.00 0.00 96 1011.9
20260510075250 9 173 3.2 3.2 0.00 0.00 0.00 96 1011.9
20260510074747 9 154 1.6 3.2 0.00 0.00 0.00 96 1012.0
20260510074244 9 194 0.0 0.0 0.00 0.00 0.00 96 1011.9
20260510073740 9 187 0.0 1.6 0.00 0.00 0.00 96 1011.8
20260510073236 9 191 0.0 0.0 0.00 0.00 0.00 96 1011.8
20260510072732 10 185 0.0 0.0 0.00 0.00 0.00 96 1011.8
20260510072229 10 184 0.0 1.6 0.00 0.00 0.00 96 1012.0
20260510071725 10 155 1.6 3.2 0.00 0.00 0.00 96 1011.8
20260510071222 10 186 0.0 0.0 0.00 0.00 0.00 95 1011.8
20260510070720 10 194 0.0 0.0 0.00 0.00 0.00 95 1011.9
20260510070218 10 186 0.0 0.0 0.00 0.00 0.00 95 1011.8
20260510065712 10 190 0.0 0.0 0.00 0.00 0.00 96 1011.8
20260510065208 10 186 0.0 1.6 0.00 0.00 0.00 96 1011.9
20260510064705 10 188 0.0 1.6 0.00 0.00 0.00 96 1011.5
20260510064203 10 181 0.0 0.0 0.00 0.00 0.00 95 1011.8
20260510063700 10 192 0.0 0.0 0.00 0.00 0.00 95 1011.9
20260510063155 10 196 0.0 0.0 0.00 0.00 0.00 95 1011.9
20260510062652 11 196 0.0 0.0 0.00 0.00 0.00 95 1011.7
20260510062148 11 197 0.0 1.6 0.00 0.00 0.00 95 1011.9
20260510061643 11 191 0.0 0.0 0.00 0.00 0.00 95 1011.7
20260510061141 11 199 0.0 1.6 0.00 0.00 0.00 95 1011.8
20260510060637 11 177 0.0 0.0 0.00 0.00 0.00 95 1011.8
20260510060134 11 177 1.6 1.6 0.00 0.00 0.00 95 1011.9
20260510055630 11 199 0.0 0.0 0.00 0.00 0.00 95 1012.1
20260510055128 11 194 0.0 1.6 0.00 0.00 0.00 95 1012.0
20260510054623 11 199 0.0 0.0 0.00 0.00 0.00 95 1012.0
20260510054119 11 191 0.0 1.6 0.00 0.00 0.00 95 1012.1
20260510053618 11 188 0.0 0.0 0.00 0.00 0.00 95 1012.1
20260510053116 11 218 0.0 0.0 0.00 0.00 0.00 94 1012.0
20260510052611 11 177 0.0 0.0 0.00 0.00 0.00 94 1012.0
20260510052108 11 177 0.0 0.0 0.00 0.00 0.00 94 1012.3
20260510051603 11 177 0.0 0.0 0.00 0.00 0.00 94 1012.2
20260510051101 11 177 0.0 0.0 0.00 0.00 0.00 94 1012.2
20260510050558 11 177 0.0 0.0 0.00 0.00 0.00 94 1012.3
20260510050055 11 177 0.0 0.0 0.00 0.00 0.00 94 1012.4
20260510045552 12 177 0.0 0.0 0.00 0.00 0.00 94 1012.3
20260510045048 12 177 0.0 1.6 0.00 0.00 0.00 94 1012.2
20260510044545 12 185 0.0 0.0 0.00 0.00 0.00 94 1012.3
20260510044042 12 185 0.0 0.0 0.00 0.00 0.00 94 1012.0
20260510043537 12 185 0.0 0.0 0.00 0.00 0.00 93 1012.3
20260510043033 12 185 0.0 0.0 0.00 0.00 0.00 93 1012.5
20260510042532 12 185 0.0 0.0 0.00 0.00 0.00 93 1012.1
20260510042028 12 185 0.0 1.6 0.00 0.00 0.00 93 1012.1
20260510041526 12 189 0.0 0.0 0.00 0.00 0.00 93 1012.0
20260510041023 12 189 0.0 0.0 0.00 0.00 0.00 93 1012.1
20260510040520 12 189 0.0 0.0 0.00 0.00 0.00 93 1012.2
20260510040015 13 189 0.0 0.0 0.00 0.00 0.00 92 1012.1
20260510035512 13 199 0.0 0.0 0.00 0.00 0.00 92 1012.0
20260510035011 13 199 0.0 0.0 0.00 0.00 0.00 92 1011.8
20260510034510 13 201 0.0 0.0 0.00 0.00 0.00 92 1012.1
20260510034006 13 179 0.0 1.6 0.00 0.00 0.00 92 1012.2
20260510033502 13 179 0.0 0.0 0.00 0.00 0.00 92 1012.2
20260510033000 13 189 0.0 0.0 0.00 0.00 0.00 91 1012.2
20260510032456 14 196 0.0 1.6 0.00 0.00 0.00 91 1012.4
20260510031951 14 182 0.0 0.0 0.00 0.00 0.00 91 1012.2
20260510031447 14 204 0.0 1.6 0.00 0.00 0.00 91 1012.0
20260510030943 15 153 1.6 3.2 0.00 0.00 0.00 90 1012.1
20260510030438 15 157 1.6 1.6 0.00 0.00 0.00 90 1012.1
20260510025936 15 168 1.6 1.6 0.00 0.00 0.00 90 1012.2
20260510025433 15 187 0.0 0.0 0.00 0.00 0.00 89 1012.2
20260510024931 15 184 0.0 0.0 0.00 0.00 0.00 89 1012.0
20260510024427 15 182 0.0 0.0 0.00 0.00 0.00 89 1012.0
20260510023923 15 187 0.0 0.0 0.00 0.00 0.00 88 1011.9
20260510023419 15 182 0.0 0.0 0.00 0.00 0.00 88 1012.1
20260510022917 15 184 0.0 3.2 0.00 0.00 0.00 88 1011.8
20260510022415 15 151 1.6 1.6 0.00 0.00 0.00 87 1011.8
20260510021914 15 181 0.0 0.0 0.00 0.00 0.00 87 1011.4
20260510021413 16 184 0.0 0.0 0.00 0.00 0.00 86 1011.8
20260510020909 16 194 0.0 1.6 0.00 0.00 0.00 86 1011.3
20260510020404 16 177 0.0 0.0 0.00 0.00 0.00 86 1011.3
20260510015900 16 161 1.6 3.2 0.00 0.00 0.00 85 1011.2
20260510015356 16 152 1.6 3.2 0.00 0.00 0.00 85 1011.4
20260510014851 16 139 3.2 3.2 0.00 0.00 0.00 84 1011.2
20260510014349 17 147 3.2 3.2 0.00 0.00 0.00 83 1010.9
20260510013845 17 149 1.6 3.2 0.00 0.00 0.00 83 1011.3
20260510013341 17 207 1.6 3.2 0.00 0.00 0.00 82 1011.3
20260510012836 17 201 1.6 3.2 0.00 0.00 0.00 82 1011.0
20260510012335 17 207 1.6 3.2 0.00 0.00 0.00 81 1010.8
20260510011831 18 201 0.0 1.6 0.00 0.00 0.00 81 1010.8
20260510011326 18 206 1.6 1.6 0.00 0.00 0.00 80 1010.6
20260510010823 18 211 4.8 6.4 0.00 0.00 0.00 80 1010.6
20260510010320 18 192 1.6 1.6 0.00 0.00 0.00 80 1010.3
20260510005817 18 192 0.0 3.2 0.00 0.00 0.00 79 1010.3
20260510005313 18 198 0.0 0.0 0.00 0.00 0.00 79 1010.2
20260510004811 18 188 1.6 1.6 0.00 0.00 0.00 78 1010.2
20260510004308 19 181 1.6 3.2 0.00 0.00 0.00 78 1010.0
20260510003805 19 182 1.6 3.2 0.00 0.00 0.00 77 1010.0
20260510003302 19 191 0.0 0.0 0.00 0.00 0.00 77 1009.8
20260510002801 19 180 3.2 3.2 0.00 0.00 0.00 77 1009.7
20260510002259 19 189 3.2 3.2 0.00 0.00 0.00 76 1009.6
20260510001755 20 187 0.0 0.0 0.00 0.00 0.00 75 1009.5
20260510001253 20 193 0.0 1.6 0.00 0.00 0.00 74 1009.8
20260510000749 20 184 1.6 3.2 0.00 0.00 0.00 74 1009.5
20260510000248 20 195 0.0 0.0 0.00 0.00 0.00 73 1009.4
20260509235744 20 199 0.0 3.2 0.00 0.00 0.00 73 1009.7
20260509235240 21 186 1.6 3.2 0.00 0.00 0.00 72 1009.7
20260509234735 21 204 0.0 1.6 0.00 0.00 0.00 72 1009.7
20260509234233 21 198 0.0 1.6 0.00 0.00 0.00 71 1009.4
20260509233731 21 200 0.0 1.6 0.00 0.00 0.00 71 1009.4
20260509233228 21 214 3.2 6.4 0.00 0.00 0.00 71 1009.3
20260509232724 21 202 3.2 11.3 0.00 0.00 0.00 70 1009.4
20260509232221 21 192 1.6 6.4 0.00 0.00 0.00 70 1009.5
20260509231718 21 207 3.2 11.3 0.00 0.00 0.00 69 1009.5
20260509231215 21 228 9.7 12.9 0.00 0.00 0.00 69 1009.2
20260509230713 21 180 3.2 4.8 0.00 0.00 0.00 69 1009.2
20260509230209 21 188 1.6 6.4 0.00 0.00 0.00 68 1009.1
20260509225705 21 219 3.2 4.8 0.00 0.00 0.00 68 1009.1
20260509225200 21 198 1.6 4.8 0.00 0.00 0.00 67 1009.1